Location: Unnamed
(48.6007°N, 2.4808°E)
Time: 09:20:43
(UTC+02:00)

PCSat - Pass Details

Date: 26 March 2023
Orbit: 783 x 794 km, 67.1° (Epoch: 29 May)

Event Time Altitude Azimuth Distance (km) Brightness Sun altitude
Rises 21:15:36 0° 279° (W) 3,284 14.8 -11.2°
Reaches altitude 10° 21:19:07 10° 303° (WNW) 2,360 13.4 -11.8°
Maximum altitude 21:22:11 15° 338° (NNW) 2,025 12.2 -12.3°
Drops below altitude 10° 21:25:17 10° 13° (NNE) 2,368 12.1 -12.8°
Sets 21:28:50 0° 36° (NE) 3,302 12.6 -13.3°
